Regional Weather Roundup
Issued by NWS

Home | Current Version | Previous Version | Text Only | Print | Product List | Glossary On
Versions: 1 2 3 4 5 6 7 8 9 10 11 12 13 14 15 16 17 18 19 20 21 22 23 24 25 26 27 28 29 30 31 32 33 34 35 36 37 38 39 40 41 42 43 44 45 46 47 48 49 50
000
ASHW40 PHFO 272012
RWRHI

WEATHER ROUNDUP FOR HAWAII
NATIONAL WEATHER SERVICE HONOLULU HI
1000 AM HST TUE JUN 27 2017

THIS IS AN AUTOMATED REPORT THAT HAS NOT BEEN QUALITY CONTROLLED.

NOTE..."FAIR" INDICATES FEW OR NO CLOUDS BELOW 12,000 FEET WITH NO
SIGNIFICANT WEATHER AND/OR OBSTRUCTIONS TO VISIBILITY.

* - THESE SITES REPORT LIMITED FIELDS

HIZ001>004-272100-
KAUAI-NIIHAU-

CITY           SKY/WX    TMP DP  RH WIND       PRES   REMARKS
LIHUE APT      SUNNY     85  69  58 NE15      30.13S
PORT ALLEN*    NOT AVBL
POIPU*         NOT AVBL
PRINCEVILLE*   NOT AVBL
KOKOLE POINT*  NOT AVBL
MOLOAA DAIRY*    N/A     82  70  65 E7G15       N/A
WAIMEA HTS*    NOT AVBL
PUU OPAE*      NOT AVBL
PUU LUA*       NOT AVBL
MAKAHA RIDGE*  NOT AVBL
$$

HIZ005>011-272100-
OAHU-

CITY           SKY/WX    TMP DP  RH WIND       PRES   REMARKS
HONOLULU       MOSUNNY   84  62  47 NE16G28   30.10S
KALAELOA       PTSUNNY   85  65  51 VRB7G18   30.11S
KANEOHE MCB    NOT AVBL
WHEELER FIELD  FAIR      78  65  64 E7        30.11R
BELLOWS*       NOT AVBL
KAHUKU*        NOT AVBL
WHEELER*       NOT AVBL
WAIANAE HARBOR NOT AVBL
DILLINGHAM*      N/A     91  72  52 SW8G16      N/A  HX  98
KAHUKU TRN*      N/A     82  68  61 W12G26      N/A
KAWAILOA*        N/A     79  64  61 E7G18       N/A
KII*             N/A     82  70  65 E17G25      N/A
MAKUA RANGE*     N/A     84  64  51 SW8G18      N/A
OAHU FOREST NW NOT AVBL
SCHOFIELD BRK*   N/A     79  64  61 MISG        N/A
SCHOFIELD S*   NOT AVBL
WAIANAE VLY*   NOT AVBL
KUAOKALA*      NOT AVBL
HONOULIUULI*   NOT AVBL
MOKUOLOE IS*   NOT AVBL
PALEHUA*       NOT AVBL
WAIAWA PHB*    NOT AVBL
$$

HIZ012>013-272100-
MOLOKAI-

CITY           SKY/WX    TMP DP  RH WIND       PRES   REMARKS
MOLOKAI AIRPT  SUNNY     84  67  56 NE17G25   30.11S
KALAUPAPA      NOT AVBL
MAKAPULAPAI*   NOT AVBL
MOLOKAI 1*     NOT AVBL
PUU ALII*      NOT AVBL
$$

HIZ016-272100-
KAHOOLAWE-

CITY           SKY/WX    TMP DP  RH WIND       PRES   REMARKS
KAHOOLAWE*     NOT AVBL
HAKIOAWA*      NOT AVBL
HONOKANAIA*      N/A     84  66  53 NE14G26   30.02F
KANELOA*         N/A     79  70  73 E18G30    30.15S
KEALIALALO*    NOT AVBL
LUA MAKIKA*    NOT AVBL
$$

HIZ014>015-272100-
LANAI-

CITY           SKY/WX    TMP DP  RH WIND       PRES   REMARKS
LANAI CITY     CLOUDY    75  64  69 VRB7      30.15S
LANAI 1*       NOT AVBL
$$

HIZ017>028-272100-
MAUI-

CITY           SKY/WX    TMP DP  RH WIND       PRES   REMARKS
KAHULUI        MOSUNNY   85  67  54 NE20G30   30.10R
KAPALUA-W MAUI MOSUNNY   81  64  57 NE17G25   30.11S
HANA AIRPORT   NOT AVBL
HANA*            N/A     81 N/A N/A NE10        N/A
HALEAKALA SUMM   N/A     52  19  28 E29G46      N/A
MAALAEA BAY*   NOT AVBL
HALEAKALA*     NOT AVBL
KAUPO GAP*     NOT AVBL
KULA 1*          N/A     69  36  29 NW3         N/A
$$

HIZ023>026-272100-
BIG ISLAND OF HAWAII COAST AND LOWER SLOPES-

CITY           SKY/WX    TMP DP  RH WIND       PRES   REMARKS
KAILUA KONA    MOSUNNY   91  70  49 S12       30.05R HX  96
HILO           PTSUNNY   80  70  71 N7        30.11F
HONOKAA*         N/A     72 N/A N/A VRB1        N/A
KAWAIHAE MWT*    N/A     86 N/A N/A NW10G16     N/A
KAWAIHAE*      NOT AVBL
SOUTH POINT*     N/A     77 N/A N/A N23G32      N/A
UPOLU AIRPORT* NOT AVBL
KAMUELA*       NOT AVBL
HAKALAU*         N/A     68  56  64 SE5G10      N/A
KALOKO-HONOKO* NOT AVBL
PALI 2*          N/A     79  61  53 SW17        N/A
KEALAKOMO*       N/A     84  64  51 N17G30      N/A
KAUPULEHU*     NOT AVBL
KAPAPALA*        N/A     76  67  74 SE8G16      N/A
LOWER KAHUKU*  NOT AVBL
PUHE CS*       NOT AVBL
PUHO CS*       NOT AVBL
PTA KEAMUKU*   NOT AVBL
WAIKOLOA*      NOT AVBL
$$

HIZ027>028-272100-
BIG ISLAND OF HAWAII INTERIOR AND SUMMMITS-

CITY           SKY/WX    TMP DP  RH WIND       PRES   REMARKS
BRADSHAW FIELD SUNNY     76  28  16 S15G23    30.39R
MK VISITOR CEN   N/A     57  27  30 SE17        N/A
MAUNA KEA*       N/A     46  -4  12 NE20        N/A
MAUNA LOA*     NOT AVBL
MAUNA LOA 1*   NOT AVBL
PTA KIPUKA*      N/A    N/A N/A N/A NW7         N/A
PTA RANGE 17*    N/A    N/A N/A N/A NE8G22      N/A
PTA WEST*        N/A     54  39  58 NW7G15      N/A
NENE CABIN*    NOT AVBL
AHUMOA*        NOT AVBL
PTA PORTABLE*  NOT AVBL
PUU MALI*        N/A     73 N/A N/A E22G38      N/A
$$

HIC003-272100-
NORTHWEST ISLANDS-

CITY           SKY/WX    TMP DP  RH WIND       PRES   REMARKS
MIDWAY ISLAND  MOSUNNY   79  66  65 E8        30.17R
MIDWAY NOS*    NOT AVBL
FRENCH FRIGATE NOT AVBL
$$

PHZ110>124-180-272100-
BUOY REPORTS

STATION/POSITION TIME  TEMP    WIND        PRES    WAVE   SWELL
                       AIR SEA DIR/SP/G            HT/PER HT/DIR
                 (UTC) (F)     (DEG/KT/KT) (MB)    (FT/S) (FT/D)
BUOY 51001       1950   80 81  120/ 16/ 19 1020.0S   6/10   5/ 70
BUOY 51101       1950   79 81  120/ 16/ 17 1020.4R   5/ 7   3/ 80
BUOY 51100       NOT AVBL
BUOY 51002       1950   79 79   60/ 19/ 23 1016.9R   8/ 8   3/110
BUOY 51003       1950   80 80   50/ 16/ 17 1017.4R   6/ 7   3/100
BUOY 51004       1950      78   90/ 16/ 17 1017.7R   7/11   5/ 50
BARBERS PT BUOY  NOT AVBL
WAIMEA BAY BUOY  1932      78                N/A     4/11   2/ 20
KAILUA BAY BUOY  1934      80                N/A     7/13   3/ 70
LANAI BUOY       NOT AVBL
BARBERS PT 2     NOT AVBL
PAUWELA MAUI     1939      79                N/A     6/12   3/ 50
HILO             1957      79                N/A     5/11   3/ 50
KANEOHE BAY BUOY 1955      79                N/A     5/12   2/ 50
HANALEI KAUAI    1952      80                N/A     6/11   3/ 60
KAHULUI HARBOR   1948   79 80   40/ 14/ 19 1019.7R
HONOLULU HARBOR  1948   83 80   80/  3/  8 1019.9F
KILO NALU        NOT AVBL
HILO HARBOR      1948   79 78  280/  5/  6 1019.6R
MOKUOLOE         1936   81 82   60/  8/ 12 1020.1S
NAWILIWILI       1948   80      60/ 12/ 16 1020.0R
WHOTS BUOY       NOT AVBL
BUOY 51028       NOT AVBL
$$

......................KEY........................................
  SKY/WX - SKY CONDITIONS/PRESENT WEATHER
  TMP    - TEMPERATURE IN FAHRENHEIT
  DWPT   - DEWPOINT IN FAHRENHEIT
  RH     - RELATIVE HUMIDITY IN PERCENT
  WIND   - DIRECTION AND SPEED /MPH FOR ISLANDS...KTS FOR BUOYS/
  PRES   - MEAN SEA LEVEL PRESSURE IN INCHES OF HG
  VSB    - VISIBILITY IN MILES
  HX     - HEAT INDEX
  WCI    - WIND CHILL INDEX
  VRB    - VARIABLE WIND DIRECTION
  N/A    - NOT AVAILABLE



USA.gov is the U.S. government's official web portal to all federal, state and local government web resources and services.